"2008/01/01",1002.9,1007.7,1000.3
"2008/01/02",1011.4,1015.7,1007.6
"2008/01/03",1016.1,1018.6,1014.3
"2008/01/04",1019.0,1021.7,1015.7
"2008/01/05",1018.7,1021.5,1015.9
"2008/01/06",1016.5,1019.3,1014.0
"2008/01/07",1015.7,1019.6,1010.7
"2008/01/08",1011.1,1012.9,1009.2
"2008/01/09",1014.5,1017.7,1012.0
"2008/01/10",1022.1,1025.1,1017.6
"2008/01/11",1020.0,1023.8,1013.9
"2008/01/12",1012.2,1014.4,1009.0
"2008/01/13",1017.1,1022.8,1013.8
"2008/01/14",1024.7,1026.8,1022.4
"2008/01/15",1026.6,1029.0,1024.7
"2008/01/16",1020.4,1025.2,1017.8
"2008/01/17",1023.9,1028.0,1019.9
"2008/01/18",1026.3,1028.2,1024.4
"2008/01/19",1028.8,1030.7,1026.2
"2008/01/20",1025.6,1029.8,1021.1
"2008/01/21",1021.3,1023.8,1019.7
"2008/01/22",1024.4,1027.0,1022.4
"2008/01/23",1016.8,1023.1,1008.2
"2008/01/24",1006.4,1011.8,1002.6
"2008/01/25",1017.5,1022.2,1011.3
"2008/01/26",1021.4,1023.3,1019.0
"2008/01/27",1022.0,1023.8,1020.2
"2008/01/28",1020.5,1024.0,1015.2
"2008/01/29",1010.1,1015.3,1007.7
"2008/01/30",1009.6,1012.8,1007.7
"2008/01/31",1013.7,1017.4,1008.7
"2008/02/01",1019.2,1023.0,1016.7
"2008/02/02",1022.2,1024.6,1019.2
"2008/02/03",1011.5,1019.4,1005.1
"2008/02/04",1013.8,1016.7,1009.2
"2008/02/05",1017.0,1018.8,1015.0
"2008/02/06",1015.6,1019.5,1010.4
"2008/02/07",1012.3,1015.2,1010.0
"2008/02/08",1018.4,1024.1,1014.9
"2008/02/09",1019.6,1024.6,1009.7
"2008/02/10",1015.2,1021.9,1009.5
"2008/02/11",1021.3,1024.7,1017.4
"2008/02/12",1006.9,1017.5,1000.1
"2008/02/13",1009.4,1012.8,1003.3
"2008/02/14",1012.1,1013.5,1010.4
"2008/02/15",1013.0,1015.1,1011.0
"2008/02/16",1016.3,1018.9,1014.6
"2008/02/17",1021.4,1025.0,1018.7
"2008/02/18",1026.8,1028.5,1025.0
"2008/02/19",1024.6,1027.5,1022.0
"2008/02/20",1017.9,1022.1,1013.8
"2008/02/21",1021.3,1023.7,1016.1
"2008/02/22",1018.3,1023.1,1010.9
"2008/02/23",1001.1,1011.0, 991.4
"2008/02/24",1009.9,1020.6,1003.3
"2008/02/25",1025.6,1027.7,1020.5
"2008/02/26",1012.9,1026.5, 994.9
"2008/02/27",1003.7,1010.1, 995.3
"2008/02/28",1012.0,1013.8,1009.7
"2008/02/29",1007.2,1012.4,1002.3
"2008/03/01",1005.5,1013.6,1001.4
"2008/03/02",1015.8,1018.2,1013.3
"2008/03/03",1008.0,1013.4,1003.9
"2008/03/04",1010.5,1012.8,1008.5
"2008/03/05",1015.5,1019.0,1012.2
"2008/03/06",1020.3,1022.5,1018.6
"2008/03/07",1019.0,1021.7,1017.1
"2008/03/08",1023.3,1025.4,1021.3
"2008/03/09",1022.1,1025.6,1017.7
"2008/03/10",1014.6,1018.0,1009.0
"2008/03/11",1017.8,1019.8,1014.9
"2008/03/12",1027.3,1031.4,1019.6
"2008/03/13",1028.5,1031.3,1025.6
"2008/03/14",1020.0,1025.8,1013.1
"2008/03/15",1015.8,1018.4,1011.7
"2008/03/16",1014.0,1017.7,1009.8
"2008/03/17",1017.3,1020.4,1013.8
"2008/03/18",1022.0,1023.6,1019.8
"2008/03/19",1019.2,1023.0,1015.1
"2008/03/20",1012.7,1015.1,1010.2
"2008/03/21",1014.5,1018.6,1012.4
"2008/03/22",1018.9,1020.2,1017.3
"2008/03/23",1018.0,1019.6,1016.0
"2008/03/24",1011.1,1016.1,1005.3
"2008/03/25",1012.5,1014.5,1010.9
"2008/03/26",1008.4,1011.2,1005.2
"2008/03/27",1011.9,1013.7,1009.0
"2008/03/28",1010.9,1014.1,1007.7
"2008/03/29",1017.0,1019.1,1014.1
"2008/03/30",1015.8,1018.5,1010.1
"2008/03/31",1002.4,1010.2, 998.4
"2008/04/01",1002.5,1009.0, 999.3
"2008/04/02",1011.8,1014.6,1008.9
"2008/04/03",1008.6,1012.5,1005.5
"2008/04/04",1014.3,1016.4,1012.3
"2008/04/05",1018.4,1020.1,1015.9
"2008/04/06",1020.2,1022.0,1018.7
"2008/04/07",1016.7,1020.4,1010.6
"2008/04/08",1008.1,1012.2,1005.6
"2008/04/09",1015.0,1016.8,1011.8
"2008/04/10",1009.9,1015.9,1003.4
"2008/04/11",1006.0,1014.0,1001.9
"2008/04/12",1016.3,1018.9,1013.2
"2008/04/13",1019.5,1022.5,1016.0
"2008/04/14",1013.4,1016.2,1010.7
"2008/04/15",1018.5,1021.8,1015.0
"2008/04/16",1021.2,1022.3,1020.2
"2008/04/17",1020.5,1022.1,1016.5
"2008/04/18",1008.3,1016.7,1003.2
"2008/04/19",1008.3,1012.5,1004.1
"2008/04/20",1015.7,1017.1,1012.3
"2008/04/21",1017.4,1019.2,1016.1
"2008/04/22",1018.9,1020.6,1017.3
"2008/04/23",1017.7,1020.3,1014.9
"2008/04/24",1010.6,1015.3,1007.1
"2008/04/25",1013.4,1019.0,1006.9
"2008/04/26",1017.0,1020.1,1012.3
"2008/04/27",1011.1,1013.1,1008.5
"2008/04/28",1016.2,1020.4,1012.6
"2008/04/29",1019.6,1022.3,1017.4
"2008/04/30",1017.9,1019.5,1016.2
"2008/05/01",1017.7,1019.8,1015.5
"2008/05/02",1014.8,1016.9,1012.5
"2008/05/03",1011.2,1012.8,1010.1
"2008/05/04",1012.5,1014.2,1011.2
"2008/05/05",1005.0,1011.3, 999.8
"2008/05/06",1009.0,1011.8,1001.0
"2008/05/07",1008.4,1010.5,1005.9
"2008/05/08",1009.6,1010.9,1007.8
"2008/05/09",1013.4,1017.8,1009.8
"2008/05/10",1018.0,1019.5,1017.1
"2008/05/11",1017.2,1020.8,1015.5
"2008/05/12",1022.2,1024.1,1019.3
"2008/05/13",1017.3,1019.8,1015.3
"2008/05/14",1015.9,1018.6,1012.7
"2008/05/15",1016.5,1018.2,1014.6
"2008/05/16",1015.4,1017.8,1012.4
"2008/05/17",1012.2,1014.8,1010.7
"2008/05/18",1017.4,1020.3,1014.6
"2008/05/19",1016.8,1020.2,1011.6
"2008/05/20",1001.9,1011.7, 993.3
"2008/05/21",1012.6,1017.0,1006.5
"2008/05/22",1015.4,1016.9,1013.3
"2008/05/23",1015.3,1016.9,1014.0
"2008/05/24",1013.1,1014.9,1009.0
"2008/05/25",1002.0,1009.1, 999.5
"2008/05/26",1004.0,1005.9,1001.7
"2008/05/27",1008.9,1012.4,1005.4
"2008/05/28",1013.0,1014.8,1011.3
"2008/05/29",1011.0,1013.9,1009.4
"2008/05/30",1014.2,1016.5,1011.1
"2008/05/31",1012.2,1014.9,1010.1
"2008/06/01",1015.0,1018.6,1011.3
"2008/06/02",1020.2,1021.9,1017.9
"2008/06/03",1016.5,1020.9,1013.6
"2008/06/04",1017.1,1018.1,1015.5
"2008/06/05",1013.2,1016.5,1009.3
"2008/06/06",1007.9,1010.5,1005.7
"2008/06/07",1012.1,1013.4,1010.3
"2008/06/08",1012.2,1013.6,1010.1
"2008/06/09",1010.7,1012.0,1008.6
"2008/06/10",1010.9,1012.9,1009.6
"2008/06/11",1007.1,1010.4,1003.7
"2008/06/12",1006.5,1008.3,1005.2
"2008/06/13",1008.9,1010.4,1006.5
"2008/06/14",1012.9,1017.4,1008.9
"2008/06/15",1016.9,1018.0,1015.5
"2008/06/16",1015.2,1016.6,1013.2
"2008/06/17",1017.6,1020.0,1015.0
"2008/06/18",1018.5,1020.7,1016.2
"2008/06/19",1013.3,1017.0,1010.7
"2008/06/20",1009.7,1011.4,1007.8
"2008/06/21",1005.5,1008.0,1003.4
"2008/06/22",1000.2,1004.1, 997.0
"2008/06/23",1000.5,1004.9, 994.6
"2008/06/24",1004.4,1006.0,1002.9
"2008/06/25",1007.2,1008.9,1005.4
"2008/06/26",1009.1,1010.5,1007.7
"2008/06/27",1011.8,1014.0,1010.1
"2008/06/28",1014.4,1015.8,1013.1
"2008/06/29",1007.5,1013.2,1001.0
"2008/06/30",1007.5,1012.4,1000.8
"2008/07/01",1013.4,1014.6,1012.1
"2008/07/02",1013.2,1014.6,1011.5
"2008/07/03",1012.2,1013.7,1010.5
"2008/07/04",1008.7,1011.4,1006.7
"2008/07/05",1009.2,1010.1,1007.9
"2008/07/06",1010.8,1012.6,1009.0
"2008/07/07",1013.0,1014.1,1012.1
"2008/07/08",1013.0,1014.1,1011.6
"2008/07/09",1012.9,1013.8,1012.0
"2008/07/10",1010.6,1012.5,1008.6
"2008/07/11",1006.9,1009.3,1004.8
"2008/07/12",1005.4,1007.4,1004.2
"2008/07/13",1009.3,1010.9,1007.1
"2008/07/14",1009.5,1010.7,1007.2
"2008/07/15",1010.4,1011.7,1008.8
"2008/07/16",1008.5,1010.7,1006.3
"2008/07/17",1007.7,1008.8,1006.4
"2008/07/18",1006.4,1007.4,1005.4
"2008/07/19",1008.3,1010.4,1006.5
"2008/07/20",1010.6,1011.5,1009.7
"2008/07/21",1010.0,1011.0,1008.4
"2008/07/22",1009.4,1010.8,1007.8
"2008/07/23",1009.4,1010.6,1007.6
"2008/07/24",1007.5,1009.7,1005.1
"2008/07/25",1006.5,1008.8,1005.3
"2008/07/26",1010.5,1013.0,1007.5
"2008/07/27",1012.7,1015.9,1010.9
"2008/07/28",1010.2,1012.5,1008.1
"2008/07/29",1008.9,1010.8,1007.8
"2008/07/30",1011.8,1015.2,1009.6
"2008/07/31",1015.2,1016.1,1014.0
"2008/08/01",1013.4,1015.4,1011.5
"2008/08/02",1009.2,1012.2,1006.9
"2008/08/03",1006.9,1008.1,1005.5
"2008/08/04",1008.3,1010.8,1006.5
"2008/08/05",1010.9,1011.7,1010.0
"2008/08/06",1010.9,1011.8,1009.6
"2008/08/07",1010.3,1011.6,1008.6
"2008/08/08",1009.3,1010.8,1007.6
"2008/08/09",1009.7,1012.2,1007.3
"2008/08/10",1012.6,1013.6,1011.3
"2008/08/11",1013.3,1014.5,1011.9
"2008/08/12",1012.8,1014.0,1011.3
"2008/08/13",1010.5,1012.7,1008.3
"2008/08/14",1005.1,1008.8,1002.5
"2008/08/15",1000.7,1002.7, 998.4
"2008/08/16",1000.2,1002.8, 998.7
"2008/08/17",1008.2,1012.7,1002.7
"2008/08/18",1011.8,1013.4,1009.9
"2008/08/19",1004.4,1010.0,1001.0
"2008/08/20",1001.3,1002.8, 999.7
"2008/08/21",1003.5,1008.8,1001.2
"2008/08/22",1011.9,1014.0,1008.3
"2008/08/23",1011.6,1013.4,1010.2
"2008/08/24",1010.0,1011.0,1008.8
"2008/08/25",1012.9,1014.7,1010.7
"2008/08/26",1015.4,1017.0,1013.8
"2008/08/27",1014.1,1015.8,1012.4
"2008/08/28",1011.4,1013.0,1009.7
"2008/08/29",1011.2,1012.5,1009.9
"2008/08/30",1011.2,1012.5,1009.6
"2008/08/31",1009.0,1010.6,1007.7
"2008/09/01",1008.6,1009.6,1007.3
"2008/09/02",1007.2,1008.7,1005.6
"2008/09/03",1005.8,1007.9,1004.2
"2008/09/04",1011.0,1014.2,1007.7
"2008/09/05",1016.0,1017.9,1013.7
"2008/09/06",1016.7,1018.1,1015.0
"2008/09/07",1013.4,1015.7,1011.0
"2008/09/08",1011.6,1013.2,1010.1
"2008/09/09",1016.3,1019.5,1013.1
"2008/09/10",1019.3,1020.9,1018.1
"2008/09/11",1013.0,1018.2,1005.3
"2008/09/12",1009.0,1012.5,1005.3
"2008/09/13",1013.6,1015.7,1011.9
"2008/09/14",1015.6,1017.1,1014.4
"2008/09/15",1015.3,1017.2,1013.2
"2008/09/16",1011.9,1013.6,1010.6
"2008/09/17",1015.1,1017.4,1012.7
"2008/09/18",1016.8,1018.7,1015.4
"2008/09/19",1013.7,1015.8,1010.1
"2008/09/20",1010.6,1012.8,1007.5
"2008/09/21",1010.0,1012.0,1007.8
"2008/09/22",1008.6,1010.3,1007.0
"2008/09/23",1008.7,1010.7,1006.8
"2008/09/24",1012.5,1015.4,1008.1
"2008/09/25",1008.6,1014.1,1001.1
"2008/09/26",1001.6,1008.7, 998.2
"2008/09/27",1015.3,1019.7,1008.6
"2008/09/28",1020.7,1022.2,1018.9
"2008/09/29",1019.8,1021.3,1018.5
"2008/09/30",1016.5,1018.6,1013.2
"2008/10/01",1010.2,1013.4,1008.0
"2008/10/02",1015.9,1019.3,1011.7
"2008/10/03",1019.0,1020.8,1017.4
"2008/10/04",1015.8,1017.5,1013.8
"2008/10/05",1017.1,1018.5,1015.1
"2008/10/06",1010.0,1015.5,1005.7
"2008/10/07",1015.6,1019.0,1010.8
"2008/10/08",1021.2,1025.0,1017.9
"2008/10/09",1024.1,1026.1,1022.7
"2008/10/10",1019.8,1022.8,1014.4
"2008/10/11",1011.2,1014.4,1008.9
"2008/10/12",1017.5,1019.5,1013.7
"2008/10/13",1018.9,1022.0,1017.1
"2008/10/14",1021.8,1023.8,1019.9
"2008/10/15",1019.9,1023.1,1018.1
"2008/10/16",1025.2,1027.3,1022.8
"2008/10/17",1027.1,1028.4,1025.9
"2008/10/18",1026.8,1027.9,1025.6
"2008/10/19",1023.8,1027.0,1018.6
"2008/10/20",1016.5,1018.7,1014.5
"2008/10/21",1020.8,1023.5,1017.8
"2008/10/22",1024.1,1025.7,1022.7
"2008/10/23",1024.7,1026.1,1021.8
"2008/10/24",1016.7,1022.1,1013.3
"2008/10/25",1017.0,1018.9,1013.5
"2008/10/26",1012.0,1016.6,1008.8
"2008/10/27",1010.6,1012.8,1008.9
"2008/10/28",1011.2,1012.8,1010.0
"2008/10/29",1009.9,1015.6,1006.5
"2008/10/30",1019.5,1021.7,1015.5
"2008/10/31",1018.5,1022.0,1011.6
"2008/11/01",1012.9,1016.4,1009.2
"2008/11/02",1013.8,1016.1,1011.8
"2008/11/03",1010.8,1013.9,1008.3
"2008/11/04",1015.6,1021.7,1010.0
"2008/11/05",1022.5,1024.1,1021.4
"2008/11/06",1018.7,1022.6,1015.6
"2008/11/07",1012.1,1016.0,1008.0
"2008/11/08",1015.2,1016.9,1013.2
"2008/11/09",1017.8,1019.4,1016.2
"2008/11/10",1021.0,1024.8,1017.8
"2008/11/11",1026.1,1027.8,1023.6
"2008/11/12",1023.9,1026.5,1022.4
"2008/11/13",1023.5,1024.8,1021.8
"2008/11/14",1022.7,1024.5,1020.7
"2008/11/15",1019.3,1022.0,1015.2
"2008/11/16",1012.0,1015.5,1009.5
"2008/11/17",1009.8,1011.0,1008.7
"2008/11/18",1007.7,1010.4,1004.7
"2008/11/19",1010.6,1013.5,1007.8
"2008/11/20",1018.5,1020.8,1013.3
"2008/11/21",1015.8,1019.1,1012.5
"2008/11/22",1022.3,1024.6,1017.3
"2008/11/23",1020.8,1024.4,1018.3
"2008/11/24",1022.4,1026.4,1014.0
"2008/11/25",1016.9,1020.9,1011.9
"2008/11/26",1024.5,1026.8,1020.7
"2008/11/27",1020.9,1026.2,1014.6
"2008/11/28",1004.3,1014.6, 997.1
"2008/11/29",1013.0,1016.7,1008.9
"2008/11/30",1015.9,1024.1,1008.8
"2008/12/01",1026.2,1028.7,1024.0
"2008/12/02",1021.6,1024.7,1019.5
"2008/12/03",1020.8,1023.3,1018.8
"2008/12/04",1023.8,1026.1,1021.8
"2008/12/05",1012.9,1021.8,1005.7
"2008/12/06",1014.1,1021.5,1009.8
"2008/12/07",1028.1,1031.7,1021.3
"2008/12/08",1028.4,1030.3,1026.0
"2008/12/09",1023.7,1027.1,1016.3
"2008/12/10",1017.0,1019.9,1014.7
"2008/12/11",1014.3,1019.3,1010.1
"2008/12/12",1016.0,1020.3,1011.6
"2008/12/13",1018.5,1021.5,1014.3
"2008/12/14",1013.6,1016.8,1011.9
"2008/12/15",1019.9,1023.3,1016.6
"2008/12/16",1026.3,1028.1,1023.2
"2008/12/17",1022.2,1026.9,1014.0
"2008/12/18",1010.9,1014.3,1007.8
"2008/12/19",1020.5,1025.4,1014.2
"2008/12/20",1023.6,1025.6,1021.7
"2008/12/21",1018.2,1023.6,1010.0
"2008/12/22",1011.8,1020.2,1006.8
"2008/12/23",1020.9,1022.8,1018.5
"2008/12/24",1022.0,1025.7,1017.1
"2008/12/25",1006.6,1017.4,1000.0
"2008/12/26",1009.7,1014.5,1000.0
"2008/12/27",1014.3,1015.6,1013.3
"2008/12/28",1012.0,1013.5,1009.8
"2008/12/29",1014.2,1016.5,1012.4
"2008/12/30",1007.3,1012.4,1003.3
"2008/12/31",1008.6,1011.8,1004.1
